"TOA5","AWS1","CR1000","7964","CR1000.Std.14","CPU:AWS1_114.CR1","64363","TBL110"
"TIMESTAMP","RECORD","Wind_spd_WVc(1)","Wind_spd_WVc(2)","Air_Temp_Avg","Humidity_Avg","SW_upper_Wm2_Avg","Rain_Tot","Press_Avg","Issui_Tot","Depth_cm","SR50A_Raw","Quality","Ground_Temp_Avg(1)","Ground_Temp_Avg(2)","SW_lower_Wm2_Avg","Albedo_Avg","SWC_per(1)","SWC_per(2)","Period(1)","Period(2)"
"TS","RN","","","","","","","","","","","","","","","","","","",""
"","","WVc","WVc","Avg","Avg","Avg","Tot","Avg","Tot","Smp","Smp","Smp","Avg","Avg","Avg","Avg","Smp","Smp","Smp","Smp"
"2015-12-21 00:00:00",214477,0.119,90.1,1.599,35.47,0,0,872.5635,0,1.543,3.156,187,2.798,3.965,0,0,51.55,59.44,33.68,35.55
"2015-12-21 00:10:00",214478,0.339,98.8,1.56,36.96,0,0,872.574,0,0.892,3.161,194,2.765,3.964,0,0,51.49,59.44,33.66,35.55
"2015-12-21 00:20:00",214479,0.418,143,1.864,38.35,0,0,872.6119,0,1.092,3.159,210,2.765,3.962,0.1402609,0,51.55,59.44,33.68,35.55
"2015-12-21 00:30:00",214480,0.507,144.2,1.573,41.62,0,0,872.5129,0,1.092,3.161,202,2.768,3.964,0,0,51.49,59.44,33.66,35.55
"2015-12-21 00:40:00",214481,0.782,145.3,1.35,44.63,0,0,872.2938,0,1.191,3.161,200,2.775,3.962,0,0,51.55,59.44,33.68,35.55
"2015-12-21 00:50:00",214482,0.821,156.2,1.542,44.71,0,0,872.081,0,0.994,3.159,202,2.758,3.954,0.1061434,0,51.55,59.44,33.68,35.55
"2015-12-21 01:00:00",214483,0.604,155.7,1.932,41.73,0,0,872.0557,0,0.894,3.159,197,2.765,3.946,0.1061434,0,51.55,59.44,33.68,35.55
"2015-12-21 01:10:00",214484,0.262,155,1.831,44.06,0,0,872.0494,0,1.193,3.158,200,2.788,3.949,0,0,51.49,59.44,33.66,35.55
"2015-12-21 01:20:00",214485,0.259,30.66,1.635,46.79,0,0,872.0494,0,1.218,3.158,189,2.816,3.954,0,0,51.49,59.44,33.66,35.55
"2015-12-21 01:30:00",214486,0.635,112,1.745,48.53,0,0,872.0494,0,1.068,3.159,185,2.822,3.961,0.003790837,0,51.49,59.44,33.66,35.55
"2015-12-21 01:40:00",214487,0.567,112.2,1.686,50.92,0,0,872.0557,0,1.141,3.16,207,2.809,3.934,0,0,51.49,59.44,33.66,35.55
"2015-12-21 01:50:00",214488,0.81,113.4,1.335,56.29,0,0,872.0578,0,1.091,3.163,198,2.792,3.899,0,0,51.55,59.44,33.68,35.55
"2015-12-21 02:00:00",214489,0.786,142.4,0.723,65.31,0,0,872.0325,0,1.09,3.167,204,2.784,3.889,0,0,51.49,59.44,33.66,35.55
"2015-12-21 02:10:00",214490,0.858,146.5,0.163,72.86,0,0,871.923,0,1.19,3.168,196,2.763,3.879,0,0,51.49,59.44,33.66,35.55
"2015-12-21 02:20:00",214491,0.697,155.5,-0.168,76.6,0,0,871.864,0,0.991,3.172,184,2.779,3.884,0,0,51.49,59.44,33.66,35.55
"2015-12-21 02:30:00",214492,0.758,155.3,-0.432,80.8,0,0,871.8976,0,0.617,3.177,186,2.78,3.884,0.05686254,0,51.49,59.38,33.66,35.54
"2015-12-21 02:40:00",214493,0.57,150,-0.7,85,0,0,871.7545,0,0.843,3.176,190,2.796,3.91,0,0,51.49,59.38,33.66,35.54
"2015-12-21 02:50:00",214494,0.447,137,-0.879,87.9,0,0,871.7607,0,0.893,3.176,188,2.804,3.945,0.01137251,0,51.49,59.38,33.66,35.54
"2015-12-21 03:00:00",214495,0.655,144.8,-0.949,90.2,0,0,871.7944,0,1.168,3.174,191,2.819,3.96,0.09098008,0,51.49,59.38,33.66,35.54
"2015-12-21 03:10:00",214496,0.788,150.9,-0.82,92.5,0,0,871.6469,0,1.317,3.171,204,2.831,3.963,0.3298028,0,51.49,59.38,33.66,35.54
"2015-12-21 03:20:00",214497,0.98,146.7,-0.754,93,0,0,871.5647,0,1.043,3.175,189,2.835,3.963,0.1743785,0,51.49,59.38,33.66,35.54
"2015-12-21 03:30:00",214498,1.007,149.4,-0.809,95.2,0,0,871.5437,0,0.892,3.175,188,2.828,3.963,0.1667968,0,51.49,59.38,33.66,35.54
"2015-12-21 03:40:00",214499,1.153,147.1,-0.541,95.3,0,0,871.5437,0,1.291,3.17,190,2.831,3.963,0.2274502,0,51.49,59.38,33.66,35.54
"2015-12-21 03:50:00",214500,1.323,153.6,-0.214,94.1,0,0,871.5331,0,1.49,3.166,191,2.832,3.963,0.3828745,0,51.49,59.38,33.66,35.54
"2015-12-21 04:00:00",214501,1.244,157.7,0.054,92,0,0,871.4784,0,1.141,3.167,185,2.82,3.963,0.3184303,0,51.49,59.38,33.66,35.54
"2015-12-21 04:10:00",214502,1.067,150.3,0.288,89.9,0,0,871.5352,0,1.09,3.167,186,2.806,3.963,0.2956852,0,51.49,59.38,33.66,35.54
"2015-12-21 04:20:00",214503,1.084,145.2,0.408,89.3,0,0,871.5437,0,0.515,3.173,188,2.797,3.963,0.276731,0,51.49,59.38,33.66,35.54
"2015-12-21 04:30:00",214504,0.729,144.6,0.258,92,0,0,871.5374,0,0.54,3.174,187,2.793,3.961,0,0,51.49,59.38,33.66,35.54
"2015-12-21 04:40:00",214505,0.841,154.5,0.167,93.7,0,0,871.5352,0,0.89,3.17,191,2.792,3.963,0.09856175,0,51.49,59.38,33.66,35.54
"2015-12-21 04:50:00",214506,0.894,156.9,0.23,94.7,0,0,871.55,0,0.54,3.173,188,2.788,3.963,0.1440518,0,51.49,59.38,33.66,35.54
"2015-12-21 05:00:00",214507,0.824,151.9,0.21,96.2,0,0,871.55,0,0.19,3.177,184,2.793,3.961,0.1099343,0,51.49,59.38,33.66,35.54
"2015-12-21 05:10:00",214508,0.977,145.9,0.17,98.8,0,0,871.5311,0.5,-0.26,3.181,188,2.778,3.961,0.03790836,0,51.49,59.38,33.66,35.54
"2015-12-21 05:20:00",214509,0.864,150.7,0.294,100,0,0,871.5289,0,0.315,3.175,189,2.779,3.963,0.2122868,0,51.49,59.38,33.66,35.54
"2015-12-21 05:30:00",214510,0.864,148.5,0.332,100,0,0,871.5416,0,0.539,3.173,192,2.787,3.957,0.2236593,0,51.49,59.38,33.66,35.54
"2015-12-21 05:40:00",214511,0.829,137.7,0.375,100,0,0,871.472,0,0.264,3.175,185,2.8,3.956,0.2274502,0,51.49,59.38,33.66,35.54
"2015-12-21 05:50:00",214512,0.605,142.1,0.363,100,0,0,871.4489,0,0.189,3.176,190,2.79,3.956,0.2047052,0,51.44,59.38,33.65,35.54
"2015-12-21 06:00:00",214513,0.78,134.6,0.381,100,0,0,871.4172,0,-0.336,3.181,182,2.785,3.953,0.2274502,0,51.49,59.38,33.66,35.54
"2015-12-21 06:10:00",214514,0.407,128.7,0.405,100,0,0,871.4826,0,1.966,3.158,225,2.776,3.961,0.2198685,0,51.49,59.38,33.66,35.54
"2015-12-21 06:20:00",214515,0.753,144.8,0.351,100,0,0,871.3056,0,1.09,3.167,190,2.828,3.946,0.2198685,0,51.49,59.38,33.66,35.54
"2015-12-21 06:30:00",214516,0.574,150,0.39,100,0,0,871.2888,0,2.366,3.154,196,2.834,3.937,0.2274502,0,51.49,59.38,33.66,35.54
"2015-12-21 06:40:00",214517,0.647,146.8,0.389,100,0,0,871.293,0,2.391,3.154,199,2.839,3.936,0.2274502,0,51.49,59.44,33.66,35.55
"2015-12-21 06:50:00",214518,0.668,151.7,0.357,100,0.03931627,0,871.2782,0.5,2.591,3.152,177,2.837,3.941,0.2350319,0.161,51.44,59.38,33.65,35.54
"2015-12-21 07:00:00",214519,0.606,151.3,0.333,100,0.294872,0,871.1666,0,3.016,3.148,180,2.84,3.924,0.4928087,1.728,51.49,59.38,33.66,35.54
"2015-12-21 07:10:00",214520,0.853,145.3,0.373,100,1.167693,0,871.1013,0,3.318,3.144,178,2.84,3.927,1.478426,1.271,51.49,59.38,33.66,35.54
"2015-12-21 07:20:00",214521,0.823,142.3,0.494,100,1.781027,0,871.0444,0,3.317,3.144,187,2.839,3.943,2.229012,1.263,51.44,59.32,33.65,35.52
"2015-12-21 07:30:00",214522,0.732,141.2,0.554,100,2.476925,0,871.2129,0,3.343,3.143,190,2.838,3.948,2.994761,1.212,51.49,59.38,33.66,35.54
"2015-12-21 07:40:00",214523,0.117,112.5,0.633,100,4.73761,0,871.0422,0,3.343,3.143,190,2.839,3.934,5.341288,1.136,51.49,59.38,33.66,35.54
"2015-12-21 07:50:00",214524,0,0,0.656,100,7.552655,0,871.0549,0.5,3.593,3.14,170,2.839,3.927,7.938012,1.074,51.49,59.32,33.66,35.52
"2015-12-21 08:00:00",214525,0,0,0.74,100,11.65334,0,871.0591,0,3.393,3.142,180,2.839,3.933,11.55068,0.991,51.49,59.32,33.66,35.52
"2015-12-21 08:10:00",214526,0,0,0.625,100,10.1318,0,871.1602,0,3.443,3.142,190,2.839,3.947,9.507418,0.952,51.49,59.32,33.66,35.52
"2015-12-21 08:20:00",214527,0,0,0.692,100,18.62411,0,871.3119,0,3.493,3.141,192,2.839,3.937,15.5538,0.835,51.44,59.32,33.65,35.52
"2015-12-21 08:30:00",214528,0,0,0.726,100,16.47352,0,871.4868,0,3.469,3.141,192,2.839,3.957,13.61289,0.826,51.44,59.38,33.65,35.54
"2015-12-21 08:40:00",214529,0.265,135,0.706,100,22.48104,0,871.3393,0,3.493,3.141,192,2.839,3.953,17.25589,0.771,51.44,59.38,33.65,35.54
"2015-12-21 08:50:00",214530,0.542,128.1,0.7,100,30.35609,0,871.293,0,3.493,3.141,192,2.839,3.953,21.84659,0.72,51.49,59.32,33.66,35.52
"2015-12-21 09:00:00",214531,0.673,136.2,0.77,100,37.75541,0,871.2551,0,3.419,3.141,187,2.839,3.956,25.67913,0.682,51.44,59.38,33.65,35.54
"2015-12-21 09:10:00",214532,0.645,143.7,0.851,100,36.28105,0,871.0802,0,3.443,3.141,170,2.839,3.963,24.43194,0.674,51.44,59.38,33.65,35.54
"2015-12-21 09:20:00",214533,0.635,130.6,0.897,100,39.56789,0,870.8464,0,3.394,3.141,170,2.839,3.95,25.77011,0.652,51.49,59.38,33.66,35.54
"2015-12-21 09:30:00",214534,0.481,127.9,0.901,100,35.77387,0,870.7874,0.5,3.269,3.142,170,2.838,3.94,23.10894,0.646,51.44,59.32,33.65,35.52
"2015-12-21 09:40:00",214535,0.809,137.1,0.948,100,50.30516,0,870.8043,0,3.144,3.143,171,2.838,3.96,30.86499,0.614,51.44,59.38,33.65,35.54
"2015-12-21 09:50:00",214536,0.753,135.2,1.007,100,54.11098,0,870.819,0,3.044,3.144,197,2.831,3.953,32.26381,0.596,51.44,59.38,33.65,35.54
"2015-12-21 10:00:00",214537,0.84,138.6,0.981,100,57.63372,0,870.7937,0,2.819,3.146,184,2.835,3.96,35.2055,0.611,51.44,59.32,33.65,35.52
"2015-12-21 10:10:00",214538,0.686,128.2,1.002,100,63.3503,0,870.7852,0,2.894,3.145,169,2.83,3.961,38.42771,0.607,51.44,59.38,33.65,35.54
"2015-12-21 10:20:00",214539,0.692,137.6,1.035,100,62.88244,0,870.5892,0,2.794,3.146,174,2.818,3.955,37.76052,0.601,51.49,59.38,33.66,35.54
"2015-12-21 10:30:00",214540,0.764,143.6,1.014,100,48.05235,0,870.5323,0,2.919,3.145,182,2.796,3.956,29.12879,0.606,51.49,59.38,33.66,35.54
"2015-12-21 10:40:00",214541,0.69,131.6,1.017,100,50.60004,0,870.4228,0.5,2.869,3.145,189,2.796,3.95,30.84604,0.611,51.49,59.38,33.66,35.54
"2015-12-21 10:50:00",214542,0.465,134.8,1.081,100,59.5327,0,870.2479,0,2.795,3.145,188,2.807,3.956,35.39883,0.595,51.55,59.32,33.68,35.52
"2015-12-21 11:00:00",214543,0.566,123.4,1.093,100,46.44824,0,870.092,0,2.795,3.145,189,2.829,3.958,27.66552,0.597,51.55,59.32,33.68,35.52
"2015-12-21 11:10:00",214544,0.671,132.4,1.094,100,42.90977,0,870.0035,0,2.694,3.147,188,2.829,3.95,25.75494,0.6,51.6,59.32,33.69,35.52
"2015-12-21 11:20:00",214545,0.764,142,0.963,100,43.29507,0,869.7107,0,2.793,3.147,188,2.838,3.957,25.7739,0.596,51.66,59.32,33.7,35.52
"2015-12-21 11:30:00",214546,0.52,112.9,0.963,100,40.1537,0,869.5211,0,2.594,3.148,188,2.835,3.949,23.79887,0.593,51.71,59.32,33.72,35.52
"2015-12-21 11:40:00",214547,0.582,109.6,0.98,100,36.61917,0,869.4684,0,2.643,3.148,188,2.843,3.943,21.47888,0.586,51.77,59.32,33.73,35.52
"2015-12-21 11:50:00",214548,0.572,135.7,0.93,100,35.58122,0,869.304,0,2.643,3.148,188,2.84,3.951,20.83444,0.586,51.82,59.32,33.75,35.52
"2015-12-21 12:00:00",214549,0.634,135.5,0.993,100,30.60378,0,869.2408,0,2.643,3.148,187,2.837,3.946,17.81314,0.582,51.82,59.32,33.75,35.52
"2015-12-21 12:10:00",214550,0.488,127.9,0.995,100,37.53917,0,869.0103,0,2.543,3.149,188,2.845,3.938,21.66463,0.577,51.88,59.38,33.76,35.54
"2015-12-21 12:20:00",214551,0.731,138.8,1.125,100,60.70039,0,868.8472,0.5,2.494,3.148,187,2.848,3.933,34.8302,0.575,51.88,59.32,33.76,35.52
"2015-12-21 12:30:00",214552,0.938,140.5,1.259,100,74.15441,0,868.621,0,2.445,3.148,188,2.856,3.951,41.88495,0.565,51.88,59.32,33.76,35.52
"2015-12-21 12:40:00",214553,1.025,142.2,1.332,100,83.34263,0,868.4815,0,2.394,3.148,187,2.862,3.944,46.53252,0.558,51.88,59.32,33.76,35.52
"2015-12-21 12:50:00",214554,0.702,145.8,1.5,100,64.9662,0,868.446,0,2.345,3.148,187,2.846,3.956,36.32758,0.559,51.94,59.38,33.77,35.54
"2015-12-21 13:00:00",214555,0.724,110.8,1.602,100,50.70619,0,868.2607,0,2.297,3.147,188,2.844,3.953,28.20761,0.557,51.94,59.38,33.77,35.54
"2015-12-21 13:10:00",214556,0.651,144.4,1.712,100,66.18893,0,868.025,0,2.422,3.146,188,2.846,3.946,36.31242,0.548,51.99,59.38,33.79,35.54
"2015-12-21 13:20:00",214557,0.518,141.3,1.724,100,61.18327,0,867.9877,0,2.198,3.148,189,2.84,3.931,33.51818,0.547,51.94,59.38,33.77,35.54
"2015-12-21 13:30:00",214558,0.709,143.2,1.763,100,50.80399,0,867.9316,0,2.147,3.148,189,2.84,3.932,27.95336,0.55,51.99,59.38,33.79,35.54
"2015-12-21 13:40:00",214559,0.617,112,1.885,100,59.10752,0,867.7374,0,2.099,3.148,189,2.839,3.93,32.32795,0.546,51.99,59.38,33.79,35.54
"2015-12-21 13:50:00",214560,0.595,53.95,1.904,100,24.15166,0,867.8917,0,2.098,3.148,188,2.837,3.932,13.08579,0.542,51.99,59.38,33.79,35.54
"2015-12-21 14:00:00",214561,0.454,39.27,1.884,100,20.25538,0,867.9598,0,1.899,3.15,188,2.836,3.939,11.04251,0.545,51.94,59.38,33.77,35.54
"2015-12-21 14:10:00",214562,0.394,55.56,1.86,100,21.11644,0,867.777,0,1.699,3.152,168,2.837,3.944,11.52396,0.545,51.94,59.38,33.77,35.54
"2015-12-21 14:20:00",214563,0.301,60.49,1.944,100,29.30926,0,867.7144,0,1.804,3.15,168,2.831,3.94,16.06121,0.548,51.94,59.44,33.77,35.55
"2015-12-21 14:30:00",214564,0.269,56.54,2.092,100,55.1771,0,867.6335,0,1.757,3.15,169,2.825,3.913,29.81315,0.541,51.99,59.44,33.79,35.55
"2015-12-21 14:40:00",214565,0.474,131.7,2.2,100,53.89888,0,867.4503,0,1.759,3.15,168,2.821,3.879,27.78491,0.512,51.94,59.44,33.77,35.55
"2015-12-21 14:50:00",214566,0.535,77.17,2.252,100,22.60082,0,867.6148,0,1.562,3.152,177,2.816,3.864,12.02341,0.531,51.99,59.44,33.79,35.55
"2015-12-21 15:00:00",214567,0.38,57.33,2.081,100,22.95397,0,867.6135,0,1.666,3.152,185,2.808,3.865,12.11403,0.528,51.94,59.44,33.77,35.55
"2015-12-21 15:10:00",214568,0.273,51.18,2.216,100,51.43001,0,867.6031,0,1.444,3.152,190,2.802,3.858,27.29385,0.531,51.99,59.44,33.79,3
"2015-12-21 15:10:00",214568,0.273,51.18,2.216,100,51.43001,0,867.6031,0,1.444,3.152,190,2.802,3.858,27.29385,0.531,51.99,59.44,33.79,35.55
"2015-12-21 15:20:00",214569,0.367,23.66,2.35,100,42.10538,0,867.6553,0,1.37,3.153,190,2.801,3.843,21.68794,0.511,51.99,59.44,33.79,35.55
"2015-12-21 15:30:00",214570,0.083,26.19,2.288,100,12.20966,0,867.6341,0,1.271,3.154,190,2.798,3.838,5.980975,0.49,51.99,59.44,33.79,35.55
"2015-12-21 15:40:00",214571,0.187,65.45,2.209,100,9.953097,0,867.4531,0,1.475,3.153,189,2.793,3.847,4.976478,0.5,51.94,59.44,33.77,35.55
"2015-12-21 15:50:00",214572,0.151,8.33,2.077,100,5.62114,0,867.5878,0,1.248,3.156,190,2.789,3.855,2.797096,0.496,51.94,59.44,33.77,35.55
"2015-12-21 16:00:00",214573,0.06,348.6,2.017,100,7.480525,0,867.6257,0,1.121,3.157,190,2.792,3.888,3.87732,0.517,51.94,59.44,33.77,35.55
"2015-12-21 16:10:00",214574,0,0,1.999,100,5.353941,0,867.6594,0,0.969,3.159,174,2.795,3.897,2.60006,0.484,51.94,59.44,33.77,35.55
"2015-12-21 16:20:00",214575,0,0,2.003,100,3.415937,0,867.6594,0,0.85,3.16,174,2.79,3.897,1.519838,0.443,51.88,59.44,33.76,35.55
"2015-12-21 16:30:00",214576,0.026,309.7,1.956,100,1.544809,0,867.6657,0,0.823,3.16,170,2.788,3.897,0.5609269,0.341,51.94,59.5,33.77,35.56
"2015-12-21 16:40:00",214577,0.089,198.9,1.838,100,0.845139,0,867.6805,0,0.821,3.161,170,2.796,3.896,0.2349871,0.277,51.94,59.44,33.77,35.55
"2015-12-21 16:50:00",214578,0,0,1.831,100,0.3066067,0,867.7394,0,0.671,3.163,179,2.802,3.889,0,0,51.88,59.44,33.76,35.55
"2015-12-21 17:00:00",214579,0,0,1.822,100,0.1729595,0,867.8743,0,0.665,3.163,171,2.81,3.889,0.007580258,0.032,51.88,59.44,33.76,35.55
"2015-12-21 17:10:00",214580,0.083,30.75,1.832,100,0.02358611,0,867.9134,0,0.864,3.161,189,2.817,3.886,0,0,51.88,59.5,33.76,35.56
"2015-12-21 17:20:00",214581,0.005,38.23,1.777,100,0.06289674,0,867.9821,0,0.637,3.164,195,2.822,3.869,0.02653191,0.096,51.88,59.5,33.76,35.56
"2015-12-21 17:30:00",214582,0.321,287.2,1.806,100,0.003931105,0,868.1593,0.5,0.158,3.168,191,2.818,3.862,0.007580666,0.016,51.88,59.44,33.76,35.55
"2015-12-21 17:40:00",214583,0.095,231.8,1.758,100,0,0,868.2048,0,0.207,3.168,190,2.821,3.879,0,0,51.88,59.5,33.76,35.56
"2015-12-21 17:50:00",214584,0.039,324.6,1.71,100,0.03144956,0,868.1902,0,0.005,3.17,189,2.818,3.853,0.0189521,0.08,51.88,59.5,33.76,35.56
"2015-12-21 18:00:00",214585,0.179,14.27,1.641,100,0,0,868.215,0,-0.272,3.173,197,2.818,3.853,0,0,51.88,59.5,33.76,35.56
"2015-12-21 18:10:00",214586,0.687,327.8,1.693,100,0,0,868.1922,0,-0.65,3.177,189,2.802,3.855,0,0,51.88,59.44,33.76,35.55
"2015-12-21 18:20:00",214587,0.653,309.9,1.683,100,0,0,868.3197,0,-0.476,3.175,192,2.821,3.855,0,0,51.88,59.44,33.76,35.55
"2015-12-21 18:30:00",214588,0.922,304.5,1.607,100,0,0,868.4416,0,-0.354,3.175,183,2.803,3.861,0,0,51.88,59.5,33.76,35.56
"2015-12-21 18:40:00",214589,0.338,295.5,1.479,100,0,0,868.4987,0,-0.549,3.177,174,2.777,3.855,0,0,51.88,59.5,33.76,35.56
"2015-12-21 18:50:00",214590,0.237,304.2,1.47,100,0,0,868.7031,0,-0.374,3.175,185,2.777,3.852,0,0,51.88,59.5,33.76,35.56
"2015-12-21 19:00:00",214591,0.477,300.9,1.429,100,0,0,868.6528,0,-0.528,3.177,181,2.786,3.858,0,0,51.88,59.5,33.76,35.56
"2015-12-21 19:10:00",214592,0.701,277.8,1.326,100,0,0,868.55,0,-0.153,3.175,195,2.806,3.853,0.06444035,0,51.94,59.5,33.77,35.56
"2015-12-21 19:20:00",214593,0.808,351.1,1.168,100,0,0,868.6837,0.5,0.093,3.173,190,2.824,3.851,0.534485,0,51.88,59.5,33.76,35.56
"2015-12-21 19:30:00",214594,0.829,346.6,1.16,100,0,0,868.7488,0,0.09,3.173,188,2.834,3.846,0.4207744,0,51.94,59.5,33.77,35.56
"2015-12-21 19:40:00",214595,0.585,15.97,0.779,100,0,0,868.9423,0,-0.236,3.179,189,2.837,3.805,0.3146371,0,51.94,59.5,33.77,35.56
"2015-12-21 19:50:00",214596,0.501,341.3,0.611,100,0,0,868.8038,0.5,-0.511,3.181,188,2.839,3.839,0.2956847,0,51.94,59.5,33.77,35.56
"2015-12-21 20:00:00",214597,0.173,317,0.656,100,0,0,868.7608,0,-0.562,3.182,192,2.839,3.849,0.4056193,0,51.94,59.5,33.77,35.56
"2015-12-21 20:10:00",214598,0.018,317.4,0.564,100,0,0,868.9686,0,-0.386,3.181,182,2.839,3.85,0.2274502,0,51.94,59.5,33.77,35.56
"2015-12-21 20:20:00",214599,0.123,26.78,0.421,100,0,0,869.0406,0.5,-1.386,3.192,183,2.839,3.842,0.2236593,0,51.94,59.56,33.77,35.58
"2015-12-21 20:30:00",214600,0,0,0.363,100,0,0,869.0154,0,-1.011,3.188,190,2.839,3.836,0.2274502,0,51.99,59.5,33.79,35.56
"2015-12-21 20:40:00",214601,0.336,303.3,0.48,100,0,0,869.0154,0,-0.962,3.186,189,2.839,3.835,0.2843127,0,51.99,59.56,33.79,35.58
"2015-12-21 20:50:00",214602,0.769,320.3,0.516,100,0,0,869.0322,0.5,-0.911,3.186,192,2.839,3.844,0.2274502,0,51.99,59.56,33.79,35.58
"2015-12-21 21:00:00",214603,0.504,246.4,0.448,100,0,0,869.0343,0,-1.036,3.188,189,2.839,3.842,0.2274502,0,51.99,59.56,33.79,35.58
"2015-12-21 21:10:00",214604,0.881,308.4,0.377,100,0,0,869.2766,0,-0.286,3.181,198,2.838,3.854,0.2274502,0,51.99,59.56,33.79,35.58
"2015-12-21 21:20:00",214605,0.766,283.3,0.327,100,0,0,869.2766,0,-0.986,3.188,197,2.826,3.866,0.185751,0,51.99,59.56,33.79,35.58
"2015-12-21 21:30:00",214606,0.284,297,0.345,100,0,0,869.3271,0,-0.486,3.183,192,2.813,3.872,0.01895418,0,51.99,59.56,33.79,35.58
"2015-12-21 21:40:00",214607,1.022,293.1,0.279,100,0,0,869.5084,0,-0.911,3.188,199,2.816,3.868,0.04549004,0,51.99,59.56,33.79,35.58
"2015-12-21 21:50:00",214608,0.926,303.5,0.272,100,0.003931627,0,869.5336,0.5,-0.86,3.187,203,2.781,3.874,0.09477091,0,51.99,59.56,33.79,35.58
"2015-12-21 22:00:00",214609,0.857,120.7,0.188,100,0,0,869.5779,0,-0.511,3.184,208,2.765,3.875,0,0,51.99,59.61,33.79,35.59
"2015-12-21 22:10:00",214610,0.271,166.6,0.285,99.9,0,0,869.5442,0,-0.61,3.185,212,2.77,3.862,0,0,51.99,59.61,33.79,35.59
"2015-12-21 22:20:00",214611,0.587,172.1,0.133,100,0,0,869.6327,0,-0.91,3.188,205,2.784,3.846,0,0,51.99,59.61,33.79,35.59
"2015-12-21 22:30:00",214612,0.366,153.8,0.147,100,0,0,869.8203,0,-0.96,3.189,204,2.785,3.828,0,0,51.99,59.61,33.79,35.59
"2015-12-21 22:40:00",214613,0.884,171.9,0.054,100,0,0,869.7739,0,-0.91,3.189,197,2.79,3.828,0,0,51.99,59.61,33.79,35.59
"2015-12-21 22:50:00",214614,0.915,173.4,0.042,100,0,0,869.7739,0,-0.91,3.189,201,2.795,3.803,0,0,52.05,59.61,33.8,35.59
"2015-12-21 23:00:00",214615,0.599,160.1,0.036,100,0,0,869.7739,0,-0.81,3.188,206,2.796,3.792,0,0,51.99,59.61,33.79,35.59
"2015-12-21 23:10:00",214616,1.095,170.4,0.023,100,0,0,869.776,0,-0.51,3.185,210,2.8,3.792,0,0,51.99,59.61,33.79,35.59
"2015-12-21 23:20:00",214617,0.546,202.7,0.166,96.2,0,0,869.9213,0,-0.861,3.188,196,2.797,3.791,0,0,51.99,59.61,33.79,35.59
"2015-12-21 23:30:00",214618,0.626,238.8,0.072,96.9,0,0,869.9656,0,-0.71,3.187,206,2.807,3.791,0,0,51.99,59.67,33.79,35.6
"2015-12-21 23:40:00",214619,0.848,219.4,0.002,97.1,0,0,870.0246,0,-0.81,3.188,196,2.814,3.791,0,0,51.99,59.67,33.79,35.6
"2015-12-21 23:50:00",214620,0.288,268,0.047,96.2,0,0,870.1384,0,-0.659,3.187,196,2.814,3.791,0,0,51.99,59.61,33.79,35.59
